Dewpoint
44 43 43 43 43 42 44 45 44 44 44 44 43 44 42 42 42 42 42 42 42 41 42 42 39 44 42 35 32 30 47 48 54 47 45 42 38 39 37 34 34 36 34 35 36 36 36
42 43 42 43 45 45 44 43 43 42 42 43 44 45 45 43 42 41 41 41 40 40 38 37 38 39 40 33 27 28 31 41 48 46 45 44 41 40 34 32 29 31 35 35 35 36 37
42 43 44 44 43 44 42 43 44 44 45 45 43 42 43 43 43 41 41 40 39 37 37 39 40 38 35 33 30 29 35 35 39 47 46 44 42 39 36 32 32 31 32 35 36 36 36
42 43 43 44 43 43 46 45 41 40 43 40 39 38 40 42 41 41 40 40 40 39 39 45 44 42 35 36 37 36 35 33 37 36 44 45 43 41 36 33 32 31 31 30 31 34 34
44 43 44 43 42 42 42 41 41 43 42 39 37 39 39 40 40 40 40 39 37 34 43 44 44 42 30 36 34 36 36 31 31 38 36 42 45 42 40 37 33 30 27 27 27 30 30
42 43 44 42 40 40 40 41 37 41 41 37 38 38 38 38 39 40 40 33 32 31 28 38 39 37 35 28 31 30 34 37 32 31 37 37 39 39 39 37 26 27 27 25 23 27 29
43 43 41 40 40 41 43 39 40 42 39 38 38 37 37 38 39 39 36 25 22 21 24 20 19 22 23 21 22 23 23 32 35 32 30 34 33 32 35 35 33 25 25 22 24 24 30
42 41 38 41 43 42 40 39 41 39 38 38 38 38 38 38 39 39 31 24 28 28 22 20 21 21 23 20 16 22 29 20 29 29 28 27 29 29 32 34 34 31 29 25 23 25 27
41 40 41 40 42 40 40 41 40 38 37 39 37 38 38 38 38 34 28 25 30 27 17 14 20 31 27 15 10 17 33 36 26 22 30 25 23 25 26 26 30 33 32 29 25 24 29
39 39 40 41 41 41 41 39 38 36 38 38 37 38 38 37 32 29 25 28 29 28 17 11 29 34 21 6 17 21 35 33 32 27 20 30 27 20 20 22 21 31 32 31 30 29 28
37 42 39 39 39 38 36 34 35 36 35 36 37 38 37 36 32 29 27 30 29 30 8 15 13 14 3 1 6 19 17 27 23 25 30 24 26 21 22 22 24 25 33 31 29 30 28
39 38 37 36 37 36 35 36 36 36 36 36 36 37 37 31 28 29 31 30 27 20 7 4 4 0 1 -0 4 8 9 23 25 20 21 31 30 29 20 21 24 23 21 24 29 30 24
36 35 35 36 33 34 36 36 35 35 36 36 37 36 35 31 27 31 30 22 13 8 -5 0 2 3 -1 2 2 8 5 20 16 13 10 15 23 30 33 22 21 25 24 23 21 22 20
36 34 34 34 38 35 34 33 34 34 34 36 36 36 30 31 32 30 24 11 2 -6 -0 5 3 1 -8 5 0 2 14 16 14 13 11 12 13 27 28 29 27 21 29 22 14 11 19
34 35 34 34 34 33 35 33 33 33 36 36 34 26 27 30 31 29 20 6 -2 6 7 7 5 -3 -5 -1 -0 -0 12 13 16 13 12 12 9 16 25 31 27 24 22 26 24 26 17
34 34 34 34 36 35 36 33 32 33 36 36 29 24 25 30 30 28 17 7 5 14 13 11 4 1 1 3 3 1 6 12 13 12 16 16 12 14 15 32 33 30 26 25 27 17 12
35 36 36 36 37 36 36 35 33 33 36 35 25 18 28 29 30 20 10 10 12 14 15 12 8 7 9 5 5 1 2 6 12 12 15 20 18 12 12 26 23 29 28 28 25 21 15
36 35 34 34 34 35 35 33 33 33 35 28 22 12 27 26 13 14 14 11 13 15 13 10 14 12 10 8 7 2 0 7 10 12 13 16 16 7 7 23 27 31 27 27 18 15 15
34 33 33 33 32 32 33 32 32 31 35 30 24 20 22 24 9 9 11 11 11 11 11 11 9 11 11 5 3 5 2 5 8 9 12 15 7 4 8 14 19 19 22 22 25 25 16
33 32 32 31 31 30 30 33 34 34 35 31 26 17 12 11 16 16 14 11 9 14 14 13 12 10 6 7 3 2 0 4 6 7 11 13 6 4 6 12 16 13 15 20 23 23 18
32 32 32 33 34 34 35 35 35 34 34 33 25 17 19 14 13 15 13 14 12 9 18 13 10 6 8 10 7 5 3 4 5 6 7 10 5 3 3 5 3 9 17 17 15 18 21
34 32 31 31 30 30 31 32 34 34 35 31 24 23 24 19 17 14 10 10 9 14 18 11 10 11 8 6 5 6 6 5 4 5 4 6 7 7 7 4 6 4 3 17 21 12 13
33 31 33 34 34 34 35 34 34 33 34 30 28 29 28 15 13 12 9 9 13 14 16 13 13 16 10 7 9 9 10 10 9 8 7 7 7 8 1 -1 1 14 22 21 23 22 21
32 32 32 31 30 33 34 34 33 32 32 34 31 30 23 14 12 9 11 12 14 13 14 14 13 10 9 11 12 10 4 0 1 3 6 6 9 8 4 4 7 18 21 23 26 26 23
34 34 31 33 34 31 30 31 30 30 29 32 34 31 24 17 14 13 12 11 13 13 11 11 13 12 13 14 12 4 -4 -1 3 6 10 9 9 7 4 4 4 9 21 18 21 24 26
33 31 32 32 31 31 31 31 30 29 29 34 33 34 31 23 14 13 16 17 16 16 13 10 13 16 17 14 8 5 2 -3 2 3 10 12 13 5 3 2 1 15 14 16 17 21 23
32 33 32 32 32 32 31 31 30 30 32 34 34 34 33 26 24 22 19 21 19 17 19 13 19 16 16 10 8 5 -2 1 6 3 9 10 12 9 5 9 5 15 15 16 15 15 17
33 33 32 32 32 32 31 31 31 32 33 33 33 33 33 27 22 22 27 22 19 20 19 17 14 20 15 11 10 10 5 7 5 7 11 11 11 5 3 3 4 15 14 14 15 14 18
32 32 32 32 32 32 31 31 31 32 32 34 30 33 34 30 24 27 26 26 25 24 24 20 15 17 15 16 14 15 12 12 9 4 7 13 16 13 11 7 14 13 14 15 14 14 17
Wind_Speed
12 13 13 14 14 17 18 18 19 20 21 22 24 23 24 25 27 29 31 31 32 34 32 27 22 16 10 10 22 9 2 6 15 24 30 30 31 29 27 20 25 30 22 20 23 20 17
12 12 14 15 16 17 17 19 19 19 20 20 22 24 24 26 28 30 33 34 36 35 33 31 26 18 13 23 14 14 13 8 13 25 29 30 21 32 19 26 25 11 26 27 19 21 21
11 13 14 15 15 16 16 16 17 19 21 22 25 28 29 29 30 31 35 38 39 37 38 33 24 18 24 34 11 8 4 15 18 21 28 31 29 25 18 26 25 29 29 21 29 26 15
12 13 14 15 15 16 17 17 21 22 21 25 27 29 29 30 30 32 35 40 40 38 29 19 12 12 13 8 15 25 30 33 21 25 29 29 26 28 28 20 17 19 30 34 28 29 26
12 13 14 15 15 17 18 19 19 21 20 23 27 27 28 29 31 33 36 38 40 30 15 9 6 9 14 3 8 11 14 24 25 21 25 28 26 34 25 30 28 27 37 39 27 18 25
12 12 12 15 16 17 16 18 21 21 21 26 26 28 28 30 32 33 34 35 32 13 13 3 3 5 9 9 18 23 18 13 20 19 24 31 22 28 35 31 43 46 41 33 30 30 26
12 12 13 14 15 15 16 20 20 20 24 25 26 28 30 31 32 34 26 25 17 5 32 13 23 29 40 31 30 21 23 20 16 18 34 26 31 41 49 55 59 22 35 32 32 29 26
12 14 14 15 15 16 19 19 19 21 24 25 26 27 28 30 31 28 19 15 11 9 20 25 31 30 22 16 27 22 14 21 19 32 31 35 40 50 47 38 32 37 34 34 21 25 24
11 12 14 15 15 17 18 18 20 23 25 25 27 28 29 28 32 16 20 11 9 18 12 15 4 5 3 23 27 23 14 15 26 36 38 42 47 42 41 40 36 39 40 41 32 20 20
11 12 13 15 15 17 18 19 22 23 23 25 28 28 30 30 17 20 13 12 14 13 9 5 4 3 9 28 11 24 5 5 7 32 45 32 48 42 42 47 44 43 37 31 29 23 23
10 12 14 15 15 16 19 20 21 22 24 26 28 28 29 28 17 12 14 16 17 4 10 9 9 7 27 26 19 17 25 4 18 26 21 30 31 40 43 42 47 41 27 33 32 35 26
11 13 13 14 15 17 18 19 21 23 25 27 29 31 30 17 12 10 16 18 8 6 7 5 23 29 35 28 26 20 23 14 8 21 25 31 26 15 43 42 38 33 30 25 31 30 36
10 12 13 15 16 16 18 20 21 24 25 27 32 31 22 11 9 14 16 15 9 8 23 17 31 29 27 24 27 22 23 13 16 14 23 20 14 34 21 29 32 30 32 21 21 26 28
10 12 13 14 14 17 18 21 23 24 25 28 33 32 12 5 7 12 17 16 11 12 18 24 22 30 21 20 25 24 19 13 19 19 14 15 15 22 15 29 22 42 30 19 21 24 26
10 11 13 13 15 16 17 21 22 24 24 27 30 15 6 4 8 12 13 11 11 12 17 18 26 19 23 24 19 25 17 13 9 19 13 8 11 26 20 34 32 25 36 34 18 1 7
10 11 12 13 15 16 19 20 22 23 22 25 17 17 3 8 12 10 8 10 9 12 18 20 22 16 27 24 23 23 14 12 18 19 20 6 16 15 34 5 16 13 27 17 13 6 12
10 12 13 14 15 17 17 19 21 24 24 21 13 11 4 12 8 9 8 8 16 16 15 10 21 24 21 19 24 23 14 13 21 23 24 10 8 18 22 9 15 8 4 7 5 8 4
11 13 13 14 14 16 17 19 21 22 22 15 9 10 8 12 13 5 10 12 17 17 19 16 10 11 13 23 17 19 21 14 16 22 20 12 9 20 28 18 16 6 9 14 11 13 18
10 12 13 15 16 17 18 18 19 20 19 14 12 9 3 7 10 15 19 19 22 16 17 16 15 15 19 21 15 17 17 14 18 21 16 16 10 19 14 9 17 11 14 22 16 6 17
10 11 13 14 16 17 18 18 19 18 17 11 6 7 10 10 6 11 20 22 22 14 20 10 14 17 16 22 21 20 24 16 19 14 15 12 12 11 12 15 19 16 25 19 11 6 10
10 12 13 15 17 18 18 18 17 17 14 7 2 4 7 10 17 21 18 20 22 20 9 12 10 16 20 18 27 22 25 23 20 6 9 10 12 15 17 24 26 23 21 21 15 11 6
10 13 15 17 18 19 20 18 17 18 11 4 5 5 4 21 14 19 16 20 19 19 8 16 19 19 21 22 22 24 25 25 24 19 15 15 9 23 22 22 18 18 16 13 5 8 9
12 14 16 18 19 19 18 19 19 18 9 4 4 5 4 12 14 17 18 21 24 23 11 15 20 20 22 22 19 25 26 27 27 25 21 16 8 9 9 14 19 4 5 11 13 16 9
12 15 17 18 19 20 17 17 18 18 13 6 9 6 6 18 17 21 21 21 20 20 24 21 21 21 19 19 24 23 22 21 15 13 11 12 10 7 11 16 3 7 18 15 13 20 24
13 16 18 19 20 20 20 19 19 18 19 10 9 5 5 13 19 23 22 18 22 20 19 19 18 14 17 19 14 12 15 3 5 3 4 4 8 6 5 11 10 5 13 12 12 6 25
14 16 18 20 20 20 21 20 19 20 21 15 11 9 8 11 19 12 20 20 19 19 18 14 12 14 9 12 11 9 7 8 4 5 4 12 14 12 4 5 3 7 22 17 12 5 30
14 17 19 20 20 21 21 21 21 23 26 18 15 12 8 10 17 12 12 11 9 12 11 15 5 10 4 8 11 7 9 6 5 9 7 8 4 12 12 4 5 17 26 28 2 12 31
15 18 19 20 21 22 22 22 23 25 25 19 14 9 6 7 18 18 8 12 15 11 11 12 10 2 4 4 3 4 6 5 6 11 10 3 2 5 4 4 4 25 11 10 15 23 24
17 18 19 20 21 22 22 23 24 25 22 15 8 6 5 6 11 17 17 18 16 17 15 5 8 7 4 4 3 4 4 5 7 7 8 3 6 8 6 4 18 19 9 14 20 22 23
Wind_Direction
47 39 33 29 20 16 14 13 5 1 355 351 345 342 337 337 336 334 331 328 324 318 314 311 310 310 289 246 251 281 140 352 183 199 203 204 207 205 216 221 223 229 246 238 249 240 235
38 35 25 22 21 17 10 4 359 352 349 344 338 335 335 335 334 331 328 325 322 315 310 305 296 284 255 247 275 278 267 236 224 201 212 208 215 212 232 241 229 238 238 244 236 236 240
34 27 24 14 13 8 2 354 350 347 344 351 351 345 338 336 334 330 327 324 319 313 310 301 282 250 239 241 237 298 292 253 240 231 218 215 218 215 232 255 255 243 249 239 236 239 222
25 24 14 10 5 355 350 3 354 347 352 351 349 340 336 334 333 331 327 323 314 316 312 299 280 237 250 270 268 262 264 261 255 242 234 234 229 237 241 246 255 242 237 243 232 224 229
25 15 11 4 360 355 358 1 354 346 351 345 345 344 339 335 334 331 327 321 313 316 311 301 245 221 274 18 278 297 269 259 238 239 237 230 240 234 233 238 248 242 235 229 236 218 220
15 8 3 2 357 356 360 356 350 346 350 348 344 341 340 338 334 331 331 317 306 304 333 244 272 252 254 325 326 320 300 282 246 235 227 224 219 220 221 215 220 227 227 235 236 215 215
8 360 354 354 341 340 357 353 348 349 347 346 342 344 341 338 332 331 331 330 4 244 344 269 285 283 300 316 315 311 292 304 250 237 235 218 218 214 214 213 220 226 220 230 236 237 205
3 356 359 351 5 1 356 350 348 349 346 342 342 340 340 335 330 327 331 4 30 306 303 283 268 272 286 329 308 321 288 253 254 239 237 240 226 227 228 226 222 233 245 245 240 214 222
358 3 347 355 0 357 353 352 351 349 345 341 339 338 336 336 323 314 338 8 339 335 293 306 304 44 329 321 312 303 328 320 263 255 243 237 234 236 240 241 234 226 224 234 240 235 223
360 347 354 354 358 4 359 354 349 346 345 338 337 335 336 338 313 338 324 349 333 323 289 284 57 258 296 330 299 317 67 292 276 245 245 250 243 237 232 238 234 239 221 231 236 235 234
358 10 5 3 5 360 352 350 347 344 341 338 337 334 332 330 304 322 332 324 326 263 291 46 9 310 327 328 298 315 316 320 304 302 263 231 230 230 235 239 235 230 228 219 235 227 236
4 9 8 358 360 357 351 350 352 349 346 339 334 331 332 326 317 344 319 315 295 250 273 17 351 343 336 336 341 319 324 24 314 322 332 250 263 254 230 233 236 245 243 244 233 233 232
7 4 359 359 355 357 355 352 351 348 344 340 330 330 327 315 320 329 320 307 286 257 356 347 338 333 318 354 347 346 332 58 35 346 333 311 272 245 242 231 232 224 224 226 222 217 230
8 360 355 355 359 357 356 355 352 354 350 341 329 321 329 331 329 329 319 300 288 330 347 332 327 316 333 1 345 343 350 17 24 6 322 345 321 222 245 234 218 208 208 212 202 215 229
4 353 352 351 358 355 355 355 350 351 353 342 326 328 313 357 330 322 306 304 327 2 325 321 320 327 336 348 345 346 12 31 18 22 359 312 291 312 279 243 227 217 215 225 254 155 239
352 349 348 346 351 352 351 352 350 349 351 341 325 317 295 330 321 298 291 294 341 339 321 320 313 328 325 332 342 341 350 21 359 348 350 295 298 301 338 357 258 208 210 193 209 232 223
344 338 340 345 352 350 351 347 348 348 356 336 322 321 62 329 303 277 317 338 326 322 325 318 313 315 320 328 334 332 335 342 2 341 336 316 276 300 334 10 336 258 210 193 237 206 240
354 353 356 1 357 356 349 348 351 356 358 346 330 328 21 333 312 342 335 337 319 306 316 312 300 308 315 324 321 324 332 346 349 344 336 347 294 324 305 326 346 249 308 218 220 205 226
4 3 2 3 2 354 352 349 348 355 1 338 334 301 308 318 351 339 332 326 314 315 309 309 300 303 311 314 320 318 316 345 338 343 338 346 349 331 348 8 14 18 336 340 323 316 224
3 0 359 356 353 347 344 346 340 351 352 336 321 318 348 318 343 336 330 322 321 315 309 302 297 304 316 325 317 317 317 332 332 318 335 346 327 314 304 300 302 303 307 320 317 226 202
355 353 349 345 339 339 342 336 338 344 348 321 329 330 342 311 321 323 317 310 317 326 299 304 302 314 329 320 317 319 325 326 322 5 321 356 322 313 311 287 285 282 295 302 300 278 236
350 349 348 346 342 338 340 346 338 335 342 298 311 317 319 295 298 303 317 316 331 336 326 302 307 322 317 311 317 318 319 314 311 305 313 327 308 317 301 291 272 295 298 282 223 231 264
349 347 344 338 334 336 334 337 333 334 347 306 302 301 286 293 306 307 308 318 315 314 319 308 311 312 309 317 320 306 300 291 286 288 292 301 302 307 281 326 310 307 352 354 3 24 339
340 341 343 340 337 334 333 328 328 329 335 296 298 296 287 292 301 300 313 304 299 310 307 308 311 307 312 320 310 294 285 283 290 278 265 258 259 261 291 302 349 63 35 33 12 53 30
338 338 339 334 335 335 334 330 331 327 320 321 295 267 274 284 298 296 308 304 312 301 304 316 316 320 320 311 304 318 320 350 335 11 4 262 254 259 270 314 318 117 8 356 357 13 28
343 341 333 333 334 329 326 324 325 323 317 313 293 256 251 272 281 304 302 294 294 302 304 321 324 320 308 299 305 303 322 323 329 338 189 313 220 216 225 281 285 10 334 316 305 226 5
338 332 331 331 329 327 324 324 323 320 319 321 296 277 242 247 274 295 283 295 293 295 288 309 351 311 322 289 310 315 322 342 339 333 322 309 182 209 240 290 300 345 331 317 195 331 333
333 330 332 330 328 325 324 325 322 323 324 325 305 289 216 278 293 296 272 281 295 272 283 315 323 177 274 279 302 330 307 360 304 314 296 273 240 193 230 267 275 7 360 34 329 326 325
331 333 330 328 326 325 325 324 326 328 334 340 305 352 277 266 281 299 283 278 274 280 286 267 260 287 267 283 274 287 298 308 317 308 336 354 23 320 319 330 355 347 343 352 342 328 330